Find Starlink 3328

NORAD ID: 50832 Int'l Des: 2022-001 Owner: SPXS Country: US Constellation: starlink operational
LEOCIRCULAR

現在のビュー

3D地球を読み込み中...

About Starlink 3328

Starlink 3328 (NORAD 50832) is a starlink constellation satellite (v1.5) launched Jan 6, 2022 by SPXS of US. It operates in LEO, CIRCULAR orbit with a mass of 297.00 kg.

Starlink 3328について

説明を読み込み中...

次回通過

Passes for default location (London). Set your location on the main map for personalized predictions.

高度履歴

Loading altitude history...

軌道要素

1 50832U 22001AF 26173.44142038 .00012255 00000-0 77941-3 0 9994
2 50832 53.1719 68.7975 0001517 102.8538 257.2624 15.09183376246080
Epoch: Jun 22, 2026 • Age: 22 hours

現在のステータス

高度 552.1 km
速度 7.59 km/s
衛星直下点 -38.29°S, 12.21°W
打ち上げ日 Jan 6, 2022
運用期間 4.4 years
タイプ internet

技術仕様

分類 Payload
質量 297.00 kg
乾燥質量 275.00 kg
総質量 297.00 kg
長さ 0.20 m
直径 2.80 m
スパン 9.00 m
形状 Box + pan
製造者 SPXS
バスタイプ Starlink
フェーズステータス In Orbit
所有者/国 SPXS/US

Most Searched